This is the latest recevied weather packets stored in our database for station/object KB3KBR-WX. If no packets are shown the sender has not sent any weather packets the latest 10 day(s).
| Time | Temp. | Humidity | Pressure | Rain* | Wind** | Luminosity | Snow |
|---|---|---|---|---|---|---|---|
| 1788100983 | 22.78° C | 78% | 1019.1 hPa | 0 mm | - | - | - |
| 1788100652 | 22.78° C | 78% | 1019 hPa | 0 mm | - | - | - |
| 1788100322 | 22.78° C | 79% | 1018.9 hPa | 0 mm | - | - | - |
| 1788099992 | 22.22° C | 78% | 1018.8 hPa | 0 mm | - | - | - |
| 1788099662 | 22.22° C | 79% | 1018.7 hPa | 0 mm | - | - | - |
| 1788099333 | 22.22° C | 81% | 1018.7 hPa | 0 mm | - | - | - |
| 1788099034 | 21.67° C | 81% | 1018.5 hPa | 0 mm | - | - | - |
| 1788098732 | 20.56° C | 84% | 1018.5 hPa | 0 mm | - | - | - |
| 1788098431 | 20° C | 87% | 1018.6 hPa | 0 mm | - | - | - |
| 1788098101 | 20° C | 88% | 1018.7 hPa | 0 mm | - | - | - |
| 1788097772 | 19.44° C | 89% | 1018.6 hPa | 0 mm | - | - | - |
| 1788097507 | 18.89° C | 89% | 1018.6 hPa | 0 mm | - | - | - |
| 1788097441 | 18.89° C | 89% | 1018.6 hPa | 0 mm | - | - | - |
| 1788097112 | 18.89° C | 90% | 1018.6 hPa | 0 mm | - | - | - |
| 1788096783 | 18.33° C | 90% | 1018.5 hPa | 0 mm | - | - | - |
| 1788096482 | 18.33° C | 90% | 1018.5 hPa | 0 mm | - | - | - |
| 1788096271 | 18.33° C | 90% | 1018.6 hPa | 0 mm | - | - | - |
| 1788096152 | 18.33° C | 90% | 1018.6 hPa | 0 mm | - | - | - |
| 1788095823 | 17.78° C | 91% | 1018.7 hPa | 0 mm | - | - | - |
| 1788095521 | 17.78° C | 92% | 1018.5 hPa | 0 mm | - | - | - |
| 1788095325 | 17.22° C | 91% | 1018.8 hPa | 0 mm | - | - | - |
| 1788095193 | 17.22° C | 91% | 1018.8 hPa | 0 mm | - | - | - |
| 1788094868 | 17.22° C | 92% | 1018.7 hPa | 0 mm | - | - | - |
| 1788094862 | 17.22° C | 92% | 1018.7 hPa | 0 mm | - | - | - |
| 1788094531 | 17.22° C | 92% | 1018.6 hPa | 0 mm | - | - | - |
* Rain latest hour (hover to see other rain measurements)
** Current wind speed in m/s (hover to see current wind gust speed)